Regional Weather Roundup
Issued by NWS Newport/Morehead, NC

Current Version | Previous Version | Text Only | Print | Product List | Glossary On
Versions: 1 2 3 4 5 6 7 8 9 10 11 12 13 14 15 16 17 18 19 20 21 22 23 24 25 26 27 28 29 30 31 32 33 34 35 36 37 38 39 40 41 42 43 44 45 46 47 48 49 50
000
ASUS42 KMHX 311913
RWRMHX
WEATHER ROUNDUP FOR EASTERN NORTH CAROLINA
NATIONAL WEATHER SERVICE NEWPORT/MOREHEAD CITY NC
300 PM EDT MON AUG 31 2015

NOTE: "FAIR" INDICATES FEW OR NO CLOUDS BELOW 12,000 FEET
WITH NO SIGNIFICANT WEATHER AND/OR OBSTRUCTIONS TO VISIBILITY

NCZ015>017-031-032-045>047-102-103-312000-
NORTH COAST

CITY           SKY/WX    TMP DP  RH WIND       PRES   REMARKS
EDENTON        RAIN      72  69  91 CALM      30.13R
ELIZABETH CITY LGT RAIN  75  71  87 S3        30.12R
KITTY HAWK     LGT RAIN  77  67  70 CALM      30.11S
MANTEO         RAIN      75  70  84 SE3       30.12S

$$

NCZ045>047-081-094-103-104-312000-
CENTRAL COAST

CITY           SKY/WX    TMP DP  RH WIND       PRES   REMARKS
FRISCO         LGT RAIN  77  74  90 S12       30.13S
SWANQUARTER    NOT AVBL

$$

NCZ095-097-098-100-101-312000-
SOUTHERN COAST

CITY           SKY/WX    TMP DP  RH WIND       PRES   REMARKS
BEAUFORT       RAIN      75  75 100 S5        30.11S FOG
CEDAR ISLAND   NOT AVBL
JACKSONVILLE   CLOUDY    78  73  84 SE9       30.08F
PINEY ISLAND   RAIN     N/A N/A N/A SE7       30.10F
WILMINGTON     CLOUDY    81  74  79 NE6       30.06F


$$

NCZ011>013-027>030-043-044-078>080-089-090>093-098-312000-
COASTAL PLAIN

CITY           SKY/WX    TMP DP  RH WIND       PRES   REMARKS
AHOSKIE        CLOUDY    74  70  86 S5        30.10F
CLINTON        CLOUDY    81  74  80 SE3       30.07F
ELIZABETHTOWN  CLOUDY    79  73  82 SE5       30.07F
GOLDSBORO      CLOUDY    78  73  83 E7        30.07S
GREENVILLE     CLOUDY    77  73  88 E7        30.10F
HAVELOCK       RAIN      76  74  93 SE7       30.11F FOG
KENANSVILLE    CLOUDY    78  73  83 E3        30.08F
KINSTON        CLOUDY    79  72  78 SE6       30.09F
NEW BERN       CLOUDY    78  73  84 SE7       30.10F
RICHLANDS      CLOUDY    81  72  74 E7        30.08F
ROCKY MOUNT    CLOUDY    78  72  81 CALM      30.09F
WASHINGTON     CLOUDY    75  71  88 E10       30.10F
WHITEVILLE     CLOUDY    78  73  84 CALM      30.06F

$$

AMZ130-135-150-152-154-156-158-170-250-252-270-ANZ085-086-088-633-658-670-312000-
MARINE OBSERVATIONS

STATION/POSITION TIME  TEMP    WIND        PRES    WAVE   SWELL
                       AIR SEA DIR/SP/G            HT/PER HT/PER
                 (UTC) (F)     (DEG/KT/KT) (MB)    (FT/S) (FT/S)
CHESAPEAKE LIGHT 1900   76     270/  3/  4 1020.1
64 E VA BEACH    1850   78 78  330/  4/  6 1018.9    3/10   3/10
DUCK             1800   76 79   20/  6/  8 1019.0
2 E DUCK         1811      79                N/A     2/ 9
OREGON INLET     1800   79 80   70/  6/  7 1020.0
13E OREGON INLT  1900      79                N/A     3/ 9   2/11
HATTERAS CG      1800   78 80  150/ 11/ 14 1019.7
DIAMOND BUOY     1850   74 84  170/ 10/ 14 1020.7    3/ 9   3/ 9
CAPE LOOKOUT     1900   76     150/  8/  9 1019.0
BEAUFORT LAB     1800   76 79  150/ 11/ 15 1018.8
30 SE NEW RVR IN 1808   79 81  150/ 14/ 19 1019.0
30 SE NEW RVR IN 1825      81                N/A     5/ 9
27 SE WRIGHTSVLE 1800   77 82  180/ 14/ 16   N/A
5 SE WRIGHTSVLE  1808   79 82   30/ 10/ 16 1018.3
225 S CAPE HAT   1850   84 84  180/ 14/ 17 1019.4    4/ 8   3/ 8
41 SE CHARLESTON 1850   81 83  200/ 12/ 14 1016.7    5/ 8   5/ 8

$$



USA.gov is the U.S. government's official web portal to all federal, state and local government web resources and services.